Tracking 30990 objects as of 8-Jul-2025
HD Live streaming from Space Station
objects crossing your sky now

FR 1

Track FR 1 now!
10-day predictions
FR 1 is classified as:


NORAD ID: 1814
Int'l Code: 1965-101A
Perigee: 661.6 km
Apogee: 669.4 km
Inclination: 75.9 °
Period: 97.9 minutes
Semi major axis: 7036 km
RCS: 0.5793 m2 (medium)
Launch date: December 6, 1965
Source: France (FR)
Launch site: AIR FORCE WESTERN TEST RANGE (AFWTR)
Your satellite tracking list
Your tracking list is empty




NASA's NSSDC Master Catalog

Two Line Element Set (TLE):
1 01814U 65101A   25188.53562937  .00000549  00000-0  92470-4 0  9995
2 01814  75.8642 225.4238 0005552 247.9803 112.0789 14.70841663  5412
Source of the keplerian elements: AFSPC